Tracking 31030 objects as of 16-Jul-2025
HD Live streaming from Space Station
objects crossing your sky now

STARLINK-31976

Track STARLINK-31976 now!
10-day predictions
STARLINK-31976 is classified as:


NORAD ID: 59887
Int'l Code: 2024-100C
Perigee: 489.2 km
Apogee: 491.1 km
Inclination: 43.0 °
Period: 94.3 minutes
Semi major axis: 6861 km
RCS: Unknown
Launch date: May 28, 2024
Source: United States (US)
Launch site: AIR FORCE EASTERN TEST RANGE (AFETR)
Your satellite tracking list
Your tracking list is empty




NASA's NSSDC Master Catalog

Two Line Element Set (TLE):
1 59887U 24100C   25196.87672772  .00000805  00000-0  38756-4 0  9999
2 59887  43.0017  26.7234 0001360 267.6900  92.3796 15.27585019 64883
Source of the keplerian elements: AFSPC